Overview Statistics Trail Chart Weather Telemetry Raw packets
 

This is the latest recevied weather packets stored in our database for station/object DL9RAN-11. If no packets are shown the sender has not sent any weather packets the latest 10 day(s).

<< 4 5 6 7 8 9 10 >>
Time Temp. Humidity Pressure Rain* Wind** Luminosity Snow
1788609616 22.78° C 65% 1025.3 hPa - - - -
1788609334 22.78° C 65% 1025.4 hPa - - - -
1788608462 22.78° C 66% 1025.4 hPa - - - -
1788607956 22.78° C 66% 1025.4 hPa - - - -
1788607661 22.78° C 68% 1025.4 hPa - - - -
1788607355 22.22° C 68% 1025.4 hPa - - - -
1788607055 22.22° C 68% 1025.4 hPa - - - -
1788606546 21.67° C 68% 1025.4 hPa - - - -
1788606246 21.67° C 69% 1025.4 hPa - - - -
1788605945 21.67° C 70% 1025.4 hPa - - - -
1788605644 21.11° C 70% 1025.4 hPa - - - -
1788605343 21.11° C 70% 1025.4 hPa - - - -
1788604904 20.56° C 70% 1025.4 hPa - - - -
1788604261 20.56° C 71% 1025.4 hPa - - - -
1788603960 20.56° C 70% 1025.5 hPa - - - -
1788602926 21.11° C 71% 1025.3 hPa - - - -
1788602088 21.11° C 71% 1025.3 hPa - - - -
1788601787 20° C 75% 1025.3 hPa - - - -
1788601279 20° C 75% 1025.1 hPa - - - -
1788600978 19.44° C 75% 1025.1 hPa - - - -
1788600677 18.89° C 75% 1025.3 hPa - - - -
1788599975 18.89° C 75% 1025.3 hPa - - - -
1788599137 18.89° C 76% 1025.3 hPa - - - -
1788598698 18.89° C 76% 1025.4 hPa - - - -
1788598397 18.33° C 76% 1025.3 hPa - - - -

* Rain since midnight (hover to see other rain measurements)
** Current wind speed in m/s (hover to see current wind gust speed)